Accueil
METAR-TAF:

METAR-TAF

Aéroports :

Suffolk Executive Airport

Suffolk, Virginie, États-Unis

latitude: 36-40-56N, longitude: 076-36-07W, altitude: 22 m

Observation

Le bulletin a été fait il y a 21 minutes, à 21:55 UTC
Vent 9 kt de ouest/sud-ouest
Température 11°C
Humidité 32%
Pression 1013 hPa
Visibilité: 16.1 km
Nuages épars à une hauteur de 8000 ft
Nuages fragmentés à une hauteur de 9000 ft

METAR: KSFQ 282155Z AUTO 24009KT 10SM SCT080 BKN090 11/M05 A2992 RMK AO2 T01061051

Heure: 17:16 (22:16 UTC)


TAF: absent

Observations et prévisions météorologiques de plus de 4000 aéroports (messages METAR et TAF).

Les stations disponibles sont représentées par des disques jaunes et rouges sur la carte.

Passer la souris dessus pour voir le nom de la station.

Cliquer dessus pour voir les observations et prévisions météorologiques.

Pour changer de carte: cliquez sur les boutons verts avec une croix noire pour zoomer, sur le bouton vert avec un tiret pour effectuer un zoom arrière, ou sur les flèches vertes pour les cartes adjacentes.


METAR-TAF: